Year,Month,Day,Hour,Minute,Value (Times are PST for temperature in C)
2015,05,19,00,00,15.10
2015,05,19,00,01,15.10
2015,05,19,00,02,15.10
2015,05,19,00,03,15.10
2015,05,19,00,04,15.00
2015,05,19,00,05,15.00
2015,05,19,00,06,15.00
2015,05,19,00,07,15.00
2015,05,19,00,08,15.00
2015,05,19,00,09,15.00
2015,05,19,00,10,15.00
2015,05,19,00,11,15.00
2015,05,19,00,12,15.00
2015,05,19,00,13,15.10
2015,05,19,00,14,15.20
2015,05,19,00,15,15.20
2015,05,19,00,16,15.20
2015,05,19,00,17,15.30
2015,05,19,00,18,15.40
2015,05,19,00,19,15.40
2015,05,19,00,20,15.50
2015,05,19,00,21,15.60
2015,05,19,00,22,15.70
2015,05,19,00,23,15.70
2015,05,19,00,24,15.80
2015,05,19,00,25,15.80
2015,05,19,00,26,15.70
2015,05,19,00,27,15.70
2015,05,19,00,28,15.70
2015,05,19,00,29,15.60
2015,05,19,00,30,15.60
2015,05,19,00,31,15.60
2015,05,19,00,32,15.50
2015,05,19,00,33,15.50
2015,05,19,00,34,15.40
2015,05,19,00,35,15.40
2015,05,19,00,36,15.30
2015,05,19,00,37,15.30
2015,05,19,00,38,15.20
2015,05,19,00,39,15.20
2015,05,19,00,40,15.10
2015,05,19,00,41,15.00
2015,05,19,00,42,15.00
2015,05,19,00,43,15.00
2015,05,19,00,44,15.00
2015,05,19,00,45,15.00
2015,05,19,00,46,15.00
2015,05,19,00,47,14.90
2015,05,19,00,48,14.90
2015,05,19,00,49,14.90
2015,05,19,00,50,14.80
2015,05,19,00,51,14.80
2015,05,19,00,52,14.80
2015,05,19,00,53,14.70
2015,05,19,00,54,14.70
2015,05,19,00,55,14.70
2015,05,19,00,56,14.60
2015,05,19,00,57,14.60
2015,05,19,00,58,14.60
2015,05,19,00,59,14.60
2015,05,19,01,00,14.60
2015,05,19,01,01,14.60
2015,05,19,01,02,14.60
2015,05,19,01,03,14.60
2015,05,19,01,04,14.50
2015,05,19,01,05,14.50
2015,05,19,01,06,14.50
2015,05,19,01,07,14.50
2015,05,19,01,08,14.50
2015,05,19,01,09,14.40
2015,05,19,01,10,14.40
2015,05,19,01,11,14.40
2015,05,19,01,12,14.40
2015,05,19,01,13,14.40
2015,05,19,01,14,14.40
2015,05,19,01,15,14.40
2015,05,19,01,16,14.40
2015,05,19,01,17,14.30
2015,05,19,01,18,14.30
2015,05,19,01,19,14.30
2015,05,19,01,20,14.30
2015,05,19,01,21,14.30
2015,05,19,01,22,14.30
2015,05,19,01,23,14.40
2015,05,19,01,24,14.40
2015,05,19,01,25,14.40
2015,05,19,01,26,14.40
2015,05,19,01,27,14.30
2015,05,19,01,28,14.30
2015,05,19,01,29,14.30
2015,05,19,01,30,14.30
2015,05,19,01,31,14.20
2015,05,19,01,32,14.20
2015,05,19,01,33,14.20
2015,05,19,01,34,14.10
2015,05,19,01,35,14.10
2015,05,19,01,36,14.10
2015,05,19,01,37,14.10
2015,05,19,01,38,14.10
2015,05,19,01,39,14.00
2015,05,19,01,40,14.00
2015,05,19,01,41,14.00
2015,05,19,01,42,13.90
2015,05,19,01,43,13.90
2015,05,19,01,44,13.90
2015,05,19,01,45,13.90
2015,05,19,01,46,13.80
2015,05,19,01,47,13.80
2015,05,19,01,48,13.80
2015,05,19,01,49,13.80
2015,05,19,01,50,13.80
2015,05,19,01,51,13.80
2015,05,19,01,52,13.70
2015,05,19,01,53,13.70
2015,05,19,01,54,13.70
2015,05,19,01,55,13.70
2015,05,19,01,56,13.70
2015,05,19,01,57,13.70
2015,05,19,01,58,13.70
2015,05,19,01,59,13.70
2015,05,19,02,00,13.70
2015,05,19,02,01,13.60
2015,05,19,02,02,13.60
2015,05,19,02,03,13.60
2015,05,19,02,04,13.60
2015,05,19,02,05,13.60
2015,05,19,02,06,13.60
2015,05,19,02,07,13.60
2015,05,19,02,08,13.60
2015,05,19,02,09,13.60
2015,05,19,02,10,13.60
2015,05,19,02,11,13.60
2015,05,19,02,12,13.60
2015,05,19,02,13,13.60
2015,05,19,02,14,13.60
2015,05,19,02,15,13.60
2015,05,19,02,16,13.60
2015,05,19,02,17,13.60
2015,05,19,02,18,13.60
2015,05,19,02,19,13.60
2015,05,19,02,20,13.50
2015,05,19,02,21,13.50
2015,05,19,02,22,13.60
2015,05,19,02,23,13.60
2015,05,19,02,24,13.60
2015,05,19,02,25,13.60
2015,05,19,02,26,13.60
2015,05,19,02,27,13.60
2015,05,19,02,28,13.60
2015,05,19,02,29,13.50
2015,05,19,02,30,13.50
2015,05,19,02,31,13.50
2015,05,19,02,32,13.50
2015,05,19,02,33,13.40
2015,05,19,02,34,13.50
2015,05,19,02,35,13.50
2015,05,19,02,36,13.50
2015,05,19,02,37,13.50
2015,05,19,02,38,13.50
2015,05,19,02,39,13.50
2015,05,19,02,40,13.50
2015,05,19,02,41,13.50
2015,05,19,02,42,13.60
2015,05,19,02,43,13.60
2015,05,19,02,44,13.60
2015,05,19,02,45,13.60
2015,05,19,02,46,13.70
2015,05,19,02,47,13.70
2015,05,19,02,48,13.80
2015,05,19,02,49,13.80
2015,05,19,02,50,13.80
2015,05,19,02,51,13.70
2015,05,19,02,52,13.70
2015,05,19,02,53,13.70
2015,05,19,02,54,13.60
2015,05,19,02,55,13.60
2015,05,19,02,56,13.60
2015,05,19,02,57,13.60
2015,05,19,02,58,13.60
2015,05,19,02,59,13.60
2015,05,19,03,00,13.60
2015,05,19,03,01,13.60
2015,05,19,03,02,13.60
2015,05,19,03,03,13.60
2015,05,19,03,04,13.60
2015,05,19,03,05,13.60
2015,05,19,03,06,13.60
2015,05,19,03,07,13.60
2015,05,19,03,08,13.70
2015,05,19,03,09,13.70
2015,05,19,03,10,13.70
2015,05,19,03,11,13.70
2015,05,19,03,12,13.70
2015,05,19,03,13,13.80
2015,05,19,03,14,13.80
2015,05,19,03,15,13.90
2015,05,19,03,16,13.90
2015,05,19,03,17,13.90
2015,05,19,03,18,14.00
2015,05,19,03,19,14.10
2015,05,19,03,20,14.10
2015,05,19,03,21,14.10
2015,05,19,03,22,14.20
2015,05,19,03,23,14.20
2015,05,19,03,24,14.30
2015,05,19,03,25,14.30
2015,05,19,03,26,14.30
2015,05,19,03,27,14.30
2015,05,19,03,28,14.40
2015,05,19,03,29,14.40
2015,05,19,03,30,14.40
2015,05,19,03,31,14.40
2015,05,19,03,32,14.40
2015,05,19,03,33,14.40
2015,05,19,03,34,14.50
2015,05,19,03,35,14.50
2015,05,19,03,36,14.50
2015,05,19,03,37,14.50
2015,05,19,03,38,14.60
2015,05,19,03,39,14.60
2015,05,19,03,40,14.60
2015,05,19,03,41,14.60
2015,05,19,03,42,14.60
2015,05,19,03,43,14.70
2015,05,19,03,44,14.60
2015,05,19,03,45,14.70
2015,05,19,03,46,14.70
2015,05,19,03,47,14.70
2015,05,19,03,48,14.70
2015,05,19,03,49,14.70
2015,05,19,03,50,14.80
2015,05,19,03,51,14.80
2015,05,19,03,52,14.90
2015,05,19,03,53,15.00
2015,05,19,03,54,15.00
2015,05,19,03,55,15.00
2015,05,19,03,56,15.00
2015,05,19,03,57,15.00
2015,05,19,03,58,15.00
2015,05,19,03,59,15.00
2015,05,19,04,00,15.10
2015,05,19,04,01,15.10
2015,05,19,04,02,15.10
2015,05,19,04,03,15.00
2015,05,19,04,04,15.00
2015,05,19,04,05,15.00
2015,05,19,04,06,15.00
2015,05,19,04,07,15.00
2015,05,19,04,08,15.00
2015,05,19,04,09,15.00
2015,05,19,04,10,15.00
2015,05,19,04,11,15.00
2015,05,19,04,12,15.00
2015,05,19,04,13,15.00
2015,05,19,04,14,15.00
2015,05,19,04,15,15.00
2015,05,19,04,16,14.90
2015,05,19,04,17,14.90
2015,05,19,04,18,14.80
2015,05,19,04,19,14.80
2015,05,19,04,20,14.80
2015,05,19,04,21,14.80
2015,05,19,04,22,14.90
2015,05,19,04,23,15.00
2015,05,19,04,24,15.00
2015,05,19,04,25,15.00
2015,05,19,04,26,15.00
2015,05,19,04,27,15.00
2015,05,19,04,28,15.10
2015,05,19,04,29,15.20
2015,05,19,04,30,15.20
2015,05,19,04,31,15.30
2015,05,19,04,32,15.40
2015,05,19,04,33,15.50
2015,05,19,04,34,15.50
2015,05,19,04,35,15.60
2015,05,19,04,36,15.70
2015,05,19,04,37,15.80
2015,05,19,04,38,15.80
2015,05,19,04,39,15.80
2015,05,19,04,40,15.80
2015,05,19,04,41,15.80
2015,05,19,04,42,15.90
2015,05,19,04,43,15.90
2015,05,19,04,44,15.90
2015,05,19,04,45,15.90
2015,05,19,04,46,15.90
2015,05,19,04,47,15.90
2015,05,19,04,48,15.90
2015,05,19,04,49,15.90
2015,05,19,04,50,15.90
2015,05,19,04,51,15.90
2015,05,19,04,52,15.90
2015,05,19,04,53,15.90
2015,05,19,04,54,15.90
2015,05,19,04,55,15.80
2015,05,19,04,56,15.80
2015,05,19,04,57,15.80
2015,05,19,04,58,15.80
2015,05,19,04,59,15.80
2015,05,19,05,00,15.80
2015,05,19,05,01,15.80
2015,05,19,05,02,15.80
2015,05,19,05,03,15.80
2015,05,19,05,04,15.80
2015,05,19,05,05,15.80
2015,05,19,05,06,15.70
2015,05,19,05,07,15.70
2015,05,19,05,08,15.70
2015,05,19,05,09,15.70
2015,05,19,05,10,15.70
2015,05,19,05,11,15.70
2015,05,19,05,12,15.70
2015,05,19,05,13,15.70
2015,05,19,05,14,15.70
2015,05,19,05,15,15.70
2015,05,19,05,16,15.70
2015,05,19,05,17,15.70
2015,05,19,05,18,15.70
2015,05,19,05,19,15.60
2015,05,19,05,20,15.60
2015,05,19,05,21,15.60
2015,05,19,05,22,15.60
2015,05,19,05,23,15.50
2015,05,19,05,24,15.50
2015,05,19,05,25,15.50
2015,05,19,05,26,15.40
2015,05,19,05,27,15.40
2015,05,19,05,28,15.30
2015,05,19,05,29,15.30
2015,05,19,05,30,15.30
2015,05,19,05,31,15.20
2015,05,19,05,32,15.10
2015,05,19,05,33,15.00
2015,05,19,05,34,15.00
2015,05,19,05,35,15.00
2015,05,19,05,36,15.00
2015,05,19,05,37,15.00
2015,05,19,05,38,15.00
2015,05,19,05,39,14.90
2015,05,19,05,40,14.80
2015,05,19,05,41,14.80
2015,05,19,05,42,14.80
2015,05,19,05,43,14.70
2015,05,19,05,44,14.70
2015,05,19,05,45,14.70
2015,05,19,05,46,14.80
2015,05,19,05,47,14.80
2015,05,19,05,48,14.80
2015,05,19,05,49,14.80
2015,05,19,05,50,14.90
2015,05,19,05,51,15.00
2015,05,19,05,52,15.00
2015,05,19,05,53,15.00
2015,05,19,05,54,15.00
2015,05,19,05,55,15.00
2015,05,19,05,56,15.00
2015,05,19,05,57,15.00
2015,05,19,05,58,15.00
2015,05,19,05,59,15.00
2015,05,19,06,00,15.00
2015,05,19,06,01,15.00
2015,05,19,06,02,15.00
2015,05,19,06,03,15.00
2015,05,19,06,04,15.00
2015,05,19,06,05,15.00
2015,05,19,06,06,15.00
2015,05,19,06,07,15.00
2015,05,19,06,08,15.00
2015,05,19,06,09,15.00
2015,05,19,06,10,15.00
2015,05,19,06,11,15.00
2015,05,19,06,12,15.00
2015,05,19,06,13,15.00
2015,05,19,06,14,15.00
2015,05,19,06,15,15.00
2015,05,19,06,16,15.00
2015,05,19,06,17,15.00
2015,05,19,06,18,15.00
2015,05,19,06,19,15.00
2015,05,19,06,20,15.00
2015,05,19,06,21,15.00
2015,05,19,06,22,14.90
2015,05,19,06,23,14.90
2015,05,19,06,24,14.80
2015,05,19,06,25,14.80
2015,05,19,06,26,14.80
2015,05,19,06,27,14.80
2015,05,19,06,28,14.80
2015,05,19,06,29,14.80
2015,05,19,06,30,14.80
2015,05,19,06,31,14.80
2015,05,19,06,32,14.80
2015,05,19,06,33,14.80
2015,05,19,06,34,14.80
2015,05,19,06,35,14.80
2015,05,19,06,36,14.80
2015,05,19,06,37,14.90
2015,05,19,06,38,15.00
2015,05,19,06,39,15.00
2015,05,19,06,40,15.00
2015,05,19,06,41,15.00
2015,05,19,06,42,15.10
2015,05,19,06,43,15.20
2015,05,19,06,44,15.20
2015,05,19,06,45,15.30
2015,05,19,06,46,15.30
2015,05,19,06,47,15.40
2015,05,19,06,48,15.40
2015,05,19,06,49,15.50
2015,05,19,06,50,15.60
2015,05,19,06,51,15.70
2015,05,19,06,52,15.70
2015,05,19,06,53,15.80
2015,05,19,06,54,15.80
2015,05,19,06,55,15.90
2015,05,19,06,56,16.00
2015,05,19,06,57,16.00
2015,05,19,06,58,16.00
2015,05,19,06,59,16.10
2015,05,19,07,00,16.10
2015,05,19,07,01,16.10
2015,05,19,07,02,16.10
2015,05,19,07,03,16.20
2015,05,19,07,04,16.20
2015,05,19,07,05,16.20
2015,05,19,07,06,16.20
2015,05,19,07,07,16.20
2015,05,19,07,08,16.20
2015,05,19,07,09,16.30
2015,05,19,07,10,16.30
2015,05,19,07,11,16.30
2015,05,19,07,12,16.30
2015,05,19,07,13,16.30
2015,05,19,07,14,16.30
2015,05,19,07,15,16.30
2015,05,19,07,16,16.30
2015,05,19,07,17,16.30
2015,05,19,07,18,16.30
2015,05,19,07,19,16.30
2015,05,19,07,20,16.40
2015,05,19,07,21,16.40
2015,05,19,07,22,16.40
2015,05,19,07,23,16.40
2015,05,19,07,24,16.40
2015,05,19,07,25,16.40
2015,05,19,07,26,16.40
2015,05,19,07,27,16.40
2015,05,19,07,28,16.40
2015,05,19,07,29,16.40
2015,05,19,07,30,16.40
2015,05,19,07,31,16.50
2015,05,19,07,32,16.50
2015,05,19,07,33,16.50
2015,05,19,07,34,16.50
2015,05,19,07,35,16.50
2015,05,19,07,36,16.50
2015,05,19,07,37,16.50
2015,05,19,07,38,16.50
2015,05,19,07,39,16.50
2015,05,19,07,40,16.50
2015,05,19,07,41,16.50
2015,05,19,07,42,16.50
2015,05,19,07,43,16.60
2015,05,19,07,44,16.60
2015,05,19,07,45,16.60
2015,05,19,07,46,16.60
2015,05,19,07,47,16.60
2015,05,19,07,48,16.60
2015,05,19,07,49,16.60
2015,05,19,07,50,16.60
2015,05,19,07,51,16.60
2015,05,19,07,52,16.60
2015,05,19,07,53,16.60
2015,05,19,07,54,16.60
2015,05,19,07,55,16.60
2015,05,19,07,56,16.70
2015,05,19,07,57,16.70
2015,05,19,07,58,16.70
2015,05,19,07,59,16.70
2015,05,19,08,00,16.70
2015,05,19,08,01,16.70
2015,05,19,08,02,16.70
2015,05,19,08,03,16.80
2015,05,19,08,04,16.80
2015,05,19,08,05,16.80
2015,05,19,08,06,16.80
2015,05,19,08,07,16.90
2015,05,19,08,08,16.90
2015,05,19,08,09,16.90
2015,05,19,08,10,16.90
2015,05,19,08,11,16.90
2015,05,19,08,12,16.90
2015,05,19,08,13,16.90
2015,05,19,08,14,16.90
2015,05,19,08,15,16.90
2015,05,19,08,16,16.90
2015,05,19,08,17,16.90
2015,05,19,08,18,16.90
2015,05,19,08,19,16.90
2015,05,19,08,20,16.90
2015,05,19,08,21,16.90
2015,05,19,08,22,16.90
2015,05,19,08,23,17.00
2015,05,19,08,24,17.00
2015,05,19,08,25,17.00
2015,05,19,08,26,17.10
2015,05,19,08,27,17.10
2015,05,19,08,28,17.20
2015,05,19,08,29,17.20
2015,05,19,08,30,17.20
2015,05,19,08,31,17.20
2015,05,19,08,32,17.30
2015,05,19,08,33,17.30
2015,05,19,08,34,17.40
2015,05,19,08,35,17.40
2015,05,19,08,36,17.40
2015,05,19,08,37,17.40
2015,05,19,08,38,17.40
2015,05,19,08,39,17.40
2015,05,19,08,40,17.50
2015,05,19,08,41,17.50
2015,05,19,08,42,17.50
2015,05,19,08,43,17.60
2015,05,19,08,44,17.60
2015,05,19,08,45,17.60
2015,05,19,08,46,17.60
2015,05,19,08,47,17.60
2015,05,19,08,48,17.60
2015,05,19,08,49,17.70
2015,05,19,08,50,17.70
2015,05,19,08,51,17.70
2015,05,19,08,52,17.70
2015,05,19,08,53,17.70
2015,05,19,08,54,17.80
2015,05,19,08,55,17.80
2015,05,19,08,56,17.80
2015,05,19,08,57,17.80
2015,05,19,08,58,17.80
2015,05,19,08,59,17.90
2015,05,19,09,00,17.90
2015,05,19,09,01,17.90
2015,05,19,09,02,17.90
2015,05,19,09,03,17.90
2015,05,19,09,04,17.90
2015,05,19,09,05,17.90
2015,05,19,09,06,17.90
2015,05,19,09,07,17.90
2015,05,19,09,08,17.90
2015,05,19,09,09,17.90
2015,05,19,09,10,17.90
2015,05,19,09,11,17.90
2015,05,19,09,12,18.00
2015,05,19,09,13,18.00
2015,05,19,09,14,18.00
2015,05,19,09,15,18.00
2015,05,19,09,16,17.90
2015,05,19,09,17,17.90
2015,05,19,09,18,17.90
2015,05,19,09,19,18.00
2015,05,19,09,20,18.00
2015,05,19,09,21,18.10
2015,05,19,09,22,18.20
2015,05,19,09,23,18.20
2015,05,19,09,24,18.20
2015,05,19,09,25,18.20
2015,05,19,09,26,18.20
2015,05,19,09,27,18.30
2015,05,19,09,28,18.30
2015,05,19,09,29,18.40
2015,05,19,09,30,18.40
2015,05,19,09,31,18.40
2015,05,19,09,32,18.40
2015,05,19,09,33,18.40
2015,05,19,09,34,18.50
2015,05,19,09,35,18.60
2015,05,19,09,36,18.60
2015,05,19,09,37,18.70
2015,05,19,09,38,18.70
2015,05,19,09,39,18.70
2015,05,19,09,40,18.70
2015,05,19,09,41,18.60
2015,05,19,09,42,18.60
2015,05,19,09,43,18.70
2015,05,19,09,44,18.70
2015,05,19,09,45,18.70
2015,05,19,09,46,18.80
2015,05,19,09,47,18.80
2015,05,19,09,48,18.80
2015,05,19,09,49,18.80
2015,05,19,09,50,18.80
2015,05,19,09,51,18.80
2015,05,19,09,52,18.80
2015,05,19,09,53,18.70
2015,05,19,09,54,18.70
2015,05,19,09,55,18.70
2015,05,19,09,56,18.60
2015,05,19,09,57,18.60
2015,05,19,09,58,18.70
2015,05,19,09,59,18.80
2015,05,19,10,00,18.80
2015,05,19,10,01,18.90
2015,05,19,10,02,18.90
2015,05,19,10,03,18.90
2015,05,19,10,04,18.90
2015,05,19,10,05,18.90
2015,05,19,10,06,18.90
2015,05,19,10,07,18.80
2015,05,19,10,08,18.70
2015,05,19,10,09,18.70
2015,05,19,10,10,18.60
2015,05,19,10,11,18.60
2015,05,19,10,12,18.60
2015,05,19,10,13,18.60
2015,05,19,10,14,18.70
2015,05,19,10,15,18.70
2015,05,19,10,16,18.70
2015,05,19,10,17,18.70
2015,05,19,10,18,18.80
2015,05,19,10,19,18.70
2015,05,19,10,20,18.70
2015,05,19,10,21,18.70
2015,05,19,10,22,18.70
2015,05,19,10,23,18.70
2015,05,19,10,24,18.70
2015,05,19,10,25,18.70
2015,05,19,10,26,18.70
2015,05,19,10,27,18.60
2015,05,19,10,28,18.50
2015,05,19,10,29,18.40
2015,05,19,10,30,18.30
2015,05,19,10,31,18.30
2015,05,19,10,32,18.30
2015,05,19,10,33,18.40
2015,05,19,10,34,18.40
2015,05,19,10,35,18.50
2015,05,19,10,36,18.50
2015,05,19,10,37,18.60
2015,05,19,10,38,18.70
2015,05,19,10,39,18.80
2015,05,19,10,40,18.80
2015,05,19,10,41,18.80
2015,05,19,10,42,18.80
2015,05,19,10,43,18.80
2015,05,19,10,44,18.70
2015,05,19,10,45,18.70
2015,05,19,10,46,18.70
2015,05,19,10,47,18.70
2015,05,19,10,48,18.70
2015,05,19,10,49,18.60
2015,05,19,10,50,18.60
2015,05,19,10,51,18.60
2015,05,19,10,52,18.60
2015,05,19,10,53,18.60
2015,05,19,10,54,18.70
2015,05,19,10,55,18.80
2015,05,19,10,56,18.80
2015,05,19,10,57,18.80
2015,05,19,10,58,18.80
2015,05,19,10,59,18.70
2015,05,19,11,00,18.70
2015,05,19,11,01,18.70
2015,05,19,11,02,18.70
2015,05,19,11,03,18.80
2015,05,19,11,04,18.80
2015,05,19,11,05,18.80
2015,05,19,11,06,19.00
2015,05,19,11,07,19.10
2015,05,19,11,08,19.20
2015,05,19,11,09,19.20
2015,05,19,11,10,19.20
2015,05,19,11,11,19.30
2015,05,19,11,12,19.40
2015,05,19,11,13,19.50
2015,05,19,11,14,19.60
2015,05,19,11,15,19.60
2015,05,19,11,16,19.70
2015,05,19,11,17,19.70
2015,05,19,11,18,19.70
2015,05,19,11,19,19.70
2015,05,19,11,20,19.70
2015,05,19,11,21,19.70
2015,05,19,11,22,19.60
2015,05,19,11,23,19.50
2015,05,19,11,24,19.50
2015,05,19,11,25,19.50
2015,05,19,11,26,19.40
2015,05,19,11,27,19.40
2015,05,19,11,28,19.40
2015,05,19,11,29,19.40
2015,05,19,11,30,19.40
2015,05,19,11,31,19.50
2015,05,19,11,32,19.50
2015,05,19,11,33,19.60
2015,05,19,11,34,19.60
2015,05,19,11,35,19.60
2015,05,19,11,36,19.70
2015,05,19,11,37,19.70
2015,05,19,11,38,19.60
2015,05,19,11,39,19.70
2015,05,19,11,40,19.60
2015,05,19,11,41,19.60
2015,05,19,11,42,19.70
2015,05,19,11,43,19.70
2015,05,19,11,44,19.80
2015,05,19,11,45,19.80
2015,05,19,11,46,19.80
2015,05,19,11,47,19.90
2015,05,19,11,48,20.00
2015,05,19,11,49,20.20
2015,05,19,11,50,20.30
2015,05,19,11,51,20.40
2015,05,19,11,52,20.50
2015,05,19,11,53,20.60
2015,05,19,11,54,20.70
2015,05,19,11,55,20.80
2015,05,19,11,56,20.80
2015,05,19,11,57,20.80
2015,05,19,11,58,20.80
2015,05,19,11,59,20.80
2015,05,19,12,00,20.80
2015,05,19,12,01,20.80
2015,05,19,12,02,20.80
2015,05,19,12,03,20.80
2015,05,19,12,04,20.90
2015,05,19,12,05,20.90
2015,05,19,12,06,21.00
2015,05,19,12,07,21.10
2015,05,19,12,08,21.10
2015,05,19,12,09,21.10
2015,05,19,12,10,21.20
2015,05,19,12,11,21.30
2015,05,19,12,12,21.40
2015,05,19,12,13,21.40
2015,05,19,12,14,21.40
2015,05,19,12,15,21.50
2015,05,19,12,16,21.50
2015,05,19,12,17,21.50
2015,05,19,12,18,21.50
2015,05,19,12,19,21.50
2015,05,19,12,20,21.60
2015,05,19,12,21,21.60
2015,05,19,12,22,21.60
2015,05,19,12,23,21.60
2015,05,19,12,24,21.60
2015,05,19,12,25,21.60
2015,05,19,12,26,21.60
2015,05,19,12,27,21.60
2015,05,19,12,28,21.70
2015,05,19,12,29,21.70
2015,05,19,12,30,21.70
2015,05,19,12,31,21.70
2015,05,19,12,32,21.80
2015,05,19,12,33,21.80
2015,05,19,12,34,21.80
2015,05,19,12,35,21.80
2015,05,19,12,36,21.80
2015,05,19,12,37,21.70
2015,05,19,12,38,21.70
2015,05,19,12,39,21.70
2015,05,19,12,40,21.70
2015,05,19,12,41,21.70
2015,05,19,12,42,21.60
2015,05,19,12,43,21.50
2015,05,19,12,44,21.40
2015,05,19,12,45,21.40
2015,05,19,12,46,21.40
2015,05,19,12,47,21.40
2015,05,19,12,48,21.60
2015,05,19,12,49,21.70
2015,05,19,12,50,21.70
2015,05,19,12,51,21.80
2015,05,19,12,52,21.80
2015,05,19,12,53,21.90
2015,05,19,12,54,21.90
2015,05,19,12,55,22.00
2015,05,19,12,56,22.10
2015,05,19,12,57,22.10
2015,05,19,12,58,22.20
2015,05,19,12,59,22.20
2015,05,19,13,00,22.30
2015,05,19,13,01,22.30
2015,05,19,13,02,22.40
2015,05,19,13,03,22.40
2015,05,19,13,04,22.50
2015,05,19,13,05,22.50
2015,05,19,13,06,22.50
2015,05,19,13,07,22.40
2015,05,19,13,08,22.50
2015,05,19,13,09,22.50
2015,05,19,13,10,22.50
2015,05,19,13,11,22.40
2015,05,19,13,12,22.40
2015,05,19,13,13,22.40
2015,05,19,13,14,22.40
2015,05,19,13,15,22.30
2015,05,19,13,16,22.30
2015,05,19,13,17,22.30
2015,05,19,13,18,22.40
2015,05,19,13,19,22.40
2015,05,19,13,20,22.50
2015,05,19,13,21,22.60
2015,05,19,13,22,22.70
2015,05,19,13,23,22.70
2015,05,19,13,24,22.70
2015,05,19,13,25,22.70
2015,05,19,13,26,22.70
2015,05,19,13,27,22.60
2015,05,19,13,28,22.60
2015,05,19,13,29,22.70
2015,05,19,13,30,22.70
2015,05,19,13,31,22.80
2015,05,19,13,32,22.90
2015,05,19,13,33,22.90
2015,05,19,13,34,23.00
2015,05,19,13,35,23.10
2015,05,19,13,36,23.20
2015,05,19,13,37,23.30
2015,05,19,13,38,23.20
2015,05,19,13,39,23.20
2015,05,19,13,40,23.10
2015,05,19,13,41,23.10
2015,05,19,13,42,23.10
2015,05,19,13,43,23.10
2015,05,19,13,44,23.10
2015,05,19,13,45,23.20
2015,05,19,13,46,23.30
2015,05,19,13,47,23.30
2015,05,19,13,48,23.30
2015,05,19,13,49,23.30
2015,05,19,13,50,23.30
2015,05,19,13,51,23.10
2015,05,19,13,52,22.90
2015,05,19,13,53,22.70
2015,05,19,13,54,22.60
2015,05,19,13,55,22.40
2015,05,19,13,56,22.30
2015,05,19,13,57,22.30
2015,05,19,13,58,22.30
2015,05,19,13,59,22.20
2015,05,19,14,00,22.20
2015,05,19,14,01,22.20
2015,05,19,14,02,22.30
2015,05,19,14,03,22.20
2015,05,19,14,04,22.10
2015,05,19,14,05,22.10
2015,05,19,14,06,22.10
2015,05,19,14,07,22.20
2015,05,19,14,08,22.20
2015,05,19,14,09,22.30
2015,05,19,14,10,22.40
2015,05,19,14,11,22.50
2015,05,19,14,12,22.60
2015,05,19,14,13,22.60
2015,05,19,14,14,22.70
2015,05,19,14,15,22.70
2015,05,19,14,16,22.70
2015,05,19,14,17,22.60
2015,05,19,14,18,22.60
2015,05,19,14,19,22.60
2015,05,19,14,20,22.60
2015,05,19,14,21,22.60
2015,05,19,14,22,22.60
2015,05,19,14,23,22.60
2015,05,19,14,24,22.60
2015,05,19,14,25,22.70
2015,05,19,14,26,22.80
2015,05,19,14,27,22.90
2015,05,19,14,28,22.90
2015,05,19,14,29,22.90
2015,05,19,14,30,22.90
2015,05,19,14,31,22.90
2015,05,19,14,32,22.90
2015,05,19,14,33,22.90
2015,05,19,14,34,22.90
2015,05,19,14,35,22.90
2015,05,19,14,36,22.80
2015,05,19,14,37,22.90
2015,05,19,14,38,22.90
2015,05,19,14,39,23.00
2015,05,19,14,40,23.10
2015,05,19,14,41,23.20
2015,05,19,14,42,23.20
2015,05,19,14,43,23.20
2015,05,19,14,44,23.20
2015,05,19,14,45,23.30
2015,05,19,14,46,23.30
2015,05,19,14,47,23.30
2015,05,19,14,48,23.30
2015,05,19,14,49,23.30
2015,05,19,14,50,23.30
2015,05,19,14,51,23.30
2015,05,19,14,52,23.30
2015,05,19,14,53,23.30
2015,05,19,14,54,23.30
2015,05,19,14,55,23.40
2015,05,19,14,56,23.50
2015,05,19,14,57,23.60
2015,05,19,14,58,23.60
2015,05,19,14,59,23.50
2015,05,19,15,00,23.50
2015,05,19,15,01,23.50
2015,05,19,15,02,23.50
2015,05,19,15,03,23.40
2015,05,19,15,04,23.40
2015,05,19,15,05,23.40
2015,05,19,15,06,23.30
2015,05,19,15,07,23.20
2015,05,19,15,08,23.10
2015,05,19,15,09,23.10
2015,05,19,15,10,23.00
2015,05,19,15,11,23.00
2015,05,19,15,12,23.10
2015,05,19,15,13,23.10
2015,05,19,15,14,23.20
2015,05,19,15,15,23.30
2015,05,19,15,16,23.30
2015,05,19,15,17,23.30
2015,05,19,15,18,23.40
2015,05,19,15,19,23.50
2015,05,19,15,20,23.60
2015,05,19,15,21,23.80
2015,05,19,15,22,23.90
2015,05,19,15,23,24.00
2015,05,19,15,24,24.10
2015,05,19,15,25,24.30
2015,05,19,15,26,24.40
2015,05,19,15,27,24.50
2015,05,19,15,28,24.60
2015,05,19,15,29,24.50
2015,05,19,15,30,24.50
2015,05,19,15,31,24.50
2015,05,19,15,32,24.60
2015,05,19,15,33,24.60
2015,05,19,15,34,24.70
2015,05,19,15,35,24.70
2015,05,19,15,36,24.60
2015,05,19,15,37,24.50
2015,05,19,15,38,24.40
2015,05,19,15,39,24.40
2015,05,19,15,40,24.40
2015,05,19,15,41,24.40
2015,05,19,15,42,24.40
2015,05,19,15,43,24.30
2015,05,19,15,44,24.40
2015,05,19,15,45,24.40
2015,05,19,15,46,24.40
2015,05,19,15,47,24.40
2015,05,19,15,48,24.40
2015,05,19,15,49,24.40
2015,05,19,15,50,24.30
2015,05,19,15,51,24.20
2015,05,19,15,52,24.10
2015,05,19,15,53,24.10
2015,05,19,15,54,24.00
2015,05,19,15,55,23.90
2015,05,19,15,56,23.90
2015,05,19,15,57,23.90
2015,05,19,15,58,23.80
2015,05,19,15,59,23.80
2015,05,19,16,00,23.90
2015,05,19,16,01,23.80
2015,05,19,16,02,23.90
2015,05,19,16,03,23.90
2015,05,19,16,04,23.90
2015,05,19,16,05,24.00
2015,05,19,16,06,23.90
2015,05,19,16,07,23.90
2015,05,19,16,08,23.90
2015,05,19,16,09,23.90
2015,05,19,16,10,23.90
2015,05,19,16,11,23.90
2015,05,19,16,12,23.90
2015,05,19,16,13,23.90
2015,05,19,16,14,23.90
2015,05,19,16,15,23.90
2015,05,19,16,16,23.90
2015,05,19,16,17,23.90
2015,05,19,16,18,23.90
2015,05,19,16,19,23.90
2015,05,19,16,20,23.80
2015,05,19,16,21,23.80
2015,05,19,16,22,23.80
2015,05,19,16,23,23.90
2015,05,19,16,24,23.90
2015,05,19,16,25,24.00
2015,05,19,16,26,24.00
2015,05,19,16,27,24.10
2015,05,19,16,28,24.10
2015,05,19,16,29,24.20
2015,05,19,16,30,24.20
2015,05,19,16,31,24.30
2015,05,19,16,32,24.30
2015,05,19,16,33,24.30
2015,05,19,16,34,24.30
2015,05,19,16,35,24.40
2015,05,19,16,36,24.40
2015,05,19,16,37,24.40
2015,05,19,16,38,24.40
2015,05,19,16,39,24.40
2015,05,19,16,40,24.40
2015,05,19,16,41,24.40
2015,05,19,16,42,24.40
2015,05,19,16,43,24.40
2015,05,19,16,44,24.40
2015,05,19,16,45,24.40
2015,05,19,16,46,24.40
2015,05,19,16,47,24.50
2015,05,19,16,48,24.50
2015,05,19,16,49,24.60
2015,05,19,16,50,24.60
2015,05,19,16,51,24.60
2015,05,19,16,52,24.70
2015,05,19,16,53,24.70
2015,05,19,16,54,24.70
2015,05,19,16,55,24.70
2015,05,19,16,56,24.60
2015,05,19,16,57,24.60
2015,05,19,16,58,24.60
2015,05,19,16,59,24.60
2015,05,19,17,00,24.60
2015,05,19,17,01,24.60
2015,05,19,17,02,24.70
2015,05,19,17,03,24.70
2015,05,19,17,04,24.70
2015,05,19,17,05,24.70
2015,05,19,17,06,24.60
2015,05,19,17,07,24.60
2015,05,19,17,08,24.60
2015,05,19,17,09,24.60
2015,05,19,17,10,24.60
2015,05,19,17,11,24.50
2015,05,19,17,12,24.30
2015,05,19,17,13,24.10
2015,05,19,17,14,23.90
2015,05,19,17,15,23.70
2015,05,19,17,16,23.50
2015,05,19,17,17,23.40
2015,05,19,17,18,23.30
2015,05,19,17,19,23.20